SCP
0 0 0 0 0 0 0 0 0 -0 0 0 0 0 0 0 0 0 0 0 0 0 0 0 0 0 0 0 0 0 0 0 0 0 0 0 0 0 0 0 0 0 0 0
0 0 0 0 0 0 0 0 0 0 0 0 0 0 0 0 0 0 0 0 0 0 0 0 0 0 0 0 0 0 0 0 0 0 0 0 0 0 0 0 0 0 0 0
0 0 0 0 0 0 0 0 0 0 0 0 0 0 0 0 0 0 0 0 0 0 0 0 0 0 0 0 0 0 0 0 0 0 0 0 0 0 0 0 0 0 0 0
0 0 0 0 0 0 0 0 0 0 0 0 0 0 0 0 0 0 0 0 0 0 0 0 0 0 0 0 0 0 0 0 0 0 0 0 0 0 0 0 0 0 0 0
0 0 0 0 0 0 0 0 0 0 0 0 0 0 0 0 0 0 0 0 0 0 0 0 0 0 0 0 0 0 0 0 0 0 0 0 0 0 0 0 0 0 0 0
0 0 0 0 0 0 0 0 0 0 0 0 0 0 0 0 0 0 0 0 0 0 0 0 0 0 0 0 0 0 0 0 0 0 0 0 0 0 0 0 0 0 0 0
0 0 0 0 0 0 0 0 0 -0 -0 0 0 0 0 0 0 0 0 0 0 0 0 0 0 0 0 0 0 0 0 0 0 0 0 0 0 0 0 0 0 0 0 0
0 0 0 0 0 0 -0 -0 0 0 0 0 0 0 0 0 0 0 0 0 0 0 0 0 0 -0 0 0 0 0 0 0 0 0 0 0 0 0 0 0 0 0 0 0
0 0 0 0 0 0 -0 -0 0 0 0 0 0 0 0 0 0 0 0 0 0 0 0 0 0 0 0 0 0 0 0 0 0 0 0 0 0 0 0 0 0 0 0 0
0 0 0 0 0 -0 -0 -0 0 0 0 0 0 0 0 0 0 0 0 0 0 0 0 0 0 0 0 0 0 0 0 0 0 0 0 0 0 0 0 0 0 0 0 0
0 0 0 0 0 0 0 0 0 0 0 0 0 0 0 0 0 0 0 0 0 0 0 0 0 0 0 0 0 0 0 0 0 0 0 0 0 0 0 0 0 0 0 0
0 0 0 0 0 0 0 0 0 0 0 0 0 0 0 0 0 0 0 0 0 0 0 0 0 0 0 0 0 0 0 0 0 0 0 0 0 0 0 0 0 0 0 0
0 0 0 0 0 -0 -0 -0 0 0 0 0 0 0 0 0 0 0 0 0 0 0 0 0 0 0 0 0 0 0 0 0 0 0 0 0 0 0 0 0 0 0 0 0
0 0 0 0 0 -0 -0 -0 0 0 0 0 -0 -0 0 0 0 0 0 0 0 0 0 0 0 0 0 0 0 0 0 0 0 0 0 0 0 0 0 0 0 0 0 0
0 0 0 0 0 -0 -0 -0 -0 -0 -0 -0 -0 -0 -0 0 0 0 0 0 0 0 0 0 0 0 0 0 0 0 0 0 0 0 0 0 0 0 0 0 0 0 0 0
0 0 0 0 0 -0 -0 -0 -0 -0 -0 -0 -0 -0 -0 0 0 0 0 0 0 0 0 0 0 0 0 0 0 0 0 0 0 0 0 0 0 0 0 0 0 0 0 0
0 0 0 0 0 -0 -0 -0 -0 -0 -0 -0 -0 -0 0 0 0 0 0 0 0 0 0 0 0 0 0 0 0 0 0 0 0 0 0 0 0 0 0 0 0 0 0 0
0 0 0 0 0 -0 -0 -0 -0 -0 -0 -0 -0 -0 0 0 0 0 0 0 0 0 0 0 0 0 0 0 0 0 0 0 0 0 0 0 0 0 0 0 0 0 0 0
0 0 0 0 0 -0 -0 -0 -0 0 0 -0 0 0 0 0 0 0 0 0 0 0 0 0 0 0 0 0 0 0 0 0 0 0 0 0 0 0 0 0 0 0 0 0
0 0 0 0 0 0 0 0 0 0 0 0 0 0 0 0 0 0 0 0 0 0 0 0 0 0 0 0 0 0 0 0 0 0 0 0 0 0 0 0 0 0 0 0
0 0 0 0 0 0 0 0 0 0 0 0 0 0 0 0 0 0 0 0 0 0 0 0 0 0 0 0 0 0 0 0 0 0 0 0 0 0 -0 0 0 0 0 0
0 0 0 0 0 0 0 0 0 0 0 0 0 0 0 0 0 0 0 0 0 0 0 0 0 0 0 0 0 0 0 0 0 0 0 0 0 0 0 0 0 0 0 0
0 0 0 0 0 0 0 0 0 0 0 0 0 0 0 0 0 0 0 0 0 0 0 0 0 0 0 0 0 0 0 0 0 0 0 0 0 0 0 0 0 0 0 0
0 0 0 0 0 0 0 0 0 0 0 0 0 0 0 0 0 0 0 0 0 0 0 0 0 0 0 0 0 0 0 0 0 0 0 0 0 0 0 0 0 0 0 0
0 0 0 0 0 0 0 0 0 0 0 0 0 0 0 0 0 0 0 0 0 0 0 0 0 0 0 0 0 0 0 0 0 0 0 0 0 0 0 0 0 0 0 0
0 0 0 0 0 0 0 0 0 0 0 0 0 0 0 0 0 0 0 0 0 0 0 0 0 0 0 0 0 0 0 0 0 0 0 0 0 0 0 0 0 0 0 0
0 0 0 0 0 0 0 0 0 0 0 0 0 0 0 0 0 0 0 0 0 0 0 0 0 0 0 0 0 0 0 0 0 0 0 0 0 0 0 0 0 0 0 0
Wind_Speed
6 5 3 5 6 7 9 9 9 9 9 12 7 5 5 4 3 2 2 2 2 2 2 1 1 1 1 1 1 0 0 0 1 1 1 1 2 2 2 2 3 2 2 3
4 3 4 7 9 9 11 9 10 10 14 11 7 4 4 4 3 4 4 3 3 2 2 2 2 1 1 1 1 0 0 1 1 1 1 1 1 2 2 2 3 3 3 3
4 3 2 8 9 10 8 8 8 12 12 6 5 5 5 5 4 5 4 3 3 2 3 3 2 2 2 1 1 1 1 1 1 1 1 2 2 2 2 2 3 3 3 3
1 1 7 8 2 6 8 8 7 7 7 6 6 6 4 3 3 4 3 3 3 3 2 2 2 1 1 0 1 1 1 2 2 1 1 2 1 2 2 2 2 3 3 3
2 4 9 8 3 4 5 7 6 8 8 6 4 4 4 3 2 4 4 3 3 3 3 2 1 1 1 1 1 1 2 2 2 1 2 2 2 2 2 2 2 3 3 3
3 4 8 7 2 2 2 6 4 5 6 4 1 2 4 3 2 3 2 2 2 2 1 2 2 1 1 1 1 2 2 2 2 2 2 2 2 2 2 2 3 3 3 3
5 6 10 6 2 3 3 7 2 3 4 3 4 5 3 3 2 2 2 2 1 1 1 2 2 2 2 2 3 3 2 2 2 2 2 2 2 2 2 2 2 3 4 4
5 6 10 3 4 6 6 2 1 2 3 3 4 3 2 2 2 2 2 2 1 1 2 2 1 1 2 3 3 2 1 2 2 2 2 1 1 2 2 2 2 3 3 4
9 9 4 3 5 4 2 2 3 3 3 3 3 3 3 2 2 2 2 2 1 1 2 2 1 1 2 3 2 1 1 2 2 2 1 1 1 2 1 1 2 2 2 3
5 8 6 5 5 4 3 4 4 4 3 3 4 4 3 3 3 2 2 2 1 1 2 3 3 2 3 3 2 2 2 2 2 1 1 1 1 1 1 1 2 2 3 3
6 7 5 6 6 7 5 4 4 4 3 4 4 4 4 3 3 3 2 2 1 2 2 3 3 3 3 2 2 2 2 2 2 1 2 1 1 2 2 2 3 3 3 3
8 7 6 6 5 4 4 5 4 4 4 3 4 5 4 4 3 3 3 2 2 2 3 3 3 3 3 2 2 2 2 2 2 1 1 1 1 2 3 4 6 6 6 5
9 6 6 6 5 4 4 5 4 4 5 4 3 4 4 3 3 3 3 3 3 3 3 3 3 4 3 2 2 2 2 2 2 1 1 1 1 1 2 4 4 5 6 7
7 4 5 5 5 4 3 4 3 3 3 3 3 3 3 3 3 3 4 4 3 3 3 3 3 4 4 2 2 2 2 3 2 2 2 2 1 1 2 2 3 3 5 7
6 6 7 5 4 3 3 2 2 4 3 3 2 3 3 3 4 4 4 3 2 2 3 3 3 4 3 2 2 2 2 2 2 1 1 1 1 1 1 2 2 3 3 4
4 4 4 4 5 5 4 3 4 5 4 3 3 3 4 4 4 3 3 2 2 3 4 3 4 4 3 2 2 2 2 3 2 1 1 1 1 1 1 1 2 2 3 3
4 5 5 5 6 6 5 5 5 5 4 4 4 3 3 2 2 3 3 2 3 4 4 4 4 4 3 2 2 2 2 2 3 2 1 1 1 1 1 1 2 2 3 4
7 7 6 6 6 6 5 4 4 4 4 4 3 3 3 3 4 4 4 3 2 3 4 4 4 3 3 2 2 2 1 1 1 1 1 1 1 1 1 1 2 2 2 3
4 5 5 5 5 4 4 4 4 4 3 3 3 4 4 4 4 4 3 2 3 5 5 4 5 3 3 3 2 2 2 2 1 1 1 2 1 1 1 1 2 2 2 2
3 3 3 3 3 3 4 3 3 2 3 3 3 3 3 4 3 3 3 4 4 4 4 4 3 2 3 3 3 2 2 2 2 2 1 1 1 1 2 2 2 2 2 2
3 3 2 3 3 3 3 3 3 3 3 3 3 4 4 4 3 3 3 4 5 4 4 5 3 2 3 3 3 2 2 2 2 2 2 2 2 2 2 2 2 2 2 2
3 3 3 3 3 3 2 2 2 3 3 3 3 3 3 3 3 3 4 5 4 5 3 2 2 4 4 3 2 2 2 2 2 2 2 2 2 2 2 2 2 2 2 2
3 3 3 3 3 3 2 2 2 3 3 4 4 4 4 4 3 3 4 3 3 5 3 3 4 6 5 2 2 2 2 3 2 2 2 2 2 2 2 2 2 2 2 3
3 3 3 3 1 1 3 3 2 2 2 3 3 4 3 3 3 3 3 5 5 5 3 4 6 6 4 1 2 2 2 2 3 2 2 2 2 2 2 2 2 2 3 3
3 3 2 2 2 2 3 2 2 2 2 2 3 3 3 3 3 3 2 3 5 5 3 4 6 5 2 1 2 2 2 3 3 2 2 2 2 2 2 2 2 3 3 3
2 2 2 3 3 2 2 2 2 2 2 2 3 2 2 2 2 2 2 3 4 4 3 2 2 3 1 2 2 2 2 2 2 2 2 2 2 2 2 3 3 3 3 3
2 2 1 2 2 2 2 2 2 3 3 3 3 2 2 2 2 2 2 2 2 2 2 2 2 2 1 2 2 2 2 2 2 2 2 2 2 2 3 3 3 3 3 3
Wind_Direction
254 258 230 236 234 206 208 215 223 248 251 268 276 272 276 275 279 281 281 274 254 240 249 272 297 299 300 295 300 292 4 337 299 306 315 325 330 329 335 341 336 330 331 334
278 253 238 259 248 228 228 230 240 260 268 269 279 284 279 271 265 260 261 264 262 249 234 243 263 276 292 287 286 289 296 291 293 305 317 319 316 322 339 337 331 333 329 327
269 298 334 265 233 211 217 214 205 234 251 277 287 278 269 267 262 251 256 262 253 247 238 238 243 243 248 266 295 319 293 293 299 296 306 307 314 332 331 322 323 324 321 320
260 19 241 245 212 200 220 240 226 243 265 272 268 280 277 261 244 252 257 258 256 249 250 254 247 250 242 287 304 293 290 288 291 294 302 306 307 310 308 308 312 314 314 311
188 245 273 286 245 183 197 261 230 235 258 274 293 310 291 272 254 249 250 247 247 243 244 237 242 234 201 270 285 286 282 278 279 271 285 296 296 294 295 301 308 306 307 311
177 214 243 254 232 192 129 279 253 218 244 258 309 301 280 313 318 283 274 265 260 261 259 229 231 199 190 236 249 259 266 270 275 269 264 269 271 282 290 293 298 306 308 304
203 233 261 259 227 132 179 252 269 210 232 220 215 231 270 321 325 317 307 301 288 269 261 248 226 189 206 236 250 260 268 272 272 266 260 258 264 274 285 294 304 301 298 296
182 213 251 224 144 189 225 284 289 254 241 228 235 259 283 296 303 322 327 331 340 332 307 298 234 192 224 250 262 271 268 267 268 266 265 263 250 275 280 281 292 296 299 303
197 217 247 192 212 237 243 266 274 259 256 232 244 258 266 270 278 288 288 301 315 293 306 312 289 216 236 262 266 266 270 269 269 278 279 258 237 253 275 282 280 289 293 299
249 262 262 260 262 266 259 255 266 259 257 245 241 250 260 260 266 271 271 274 277 278 292 298 299 280 249 255 248 244 255 268 274 280 282 272 258 247 252 261 274 283 287 293
249 267 289 274 248 251 259 261 264 273 259 240 233 248 246 250 254 256 267 268 252 246 260 277 287 283 273 257 230 244 260 266 270 270 260 267 272 257 260 249 257 277 277 278
234 233 225 254 261 251 250 260 259 265 277 262 233 241 243 246 249 253 261 262 265 264 271 279 286 287 282 259 227 225 250 265 264 265 264 263 278 305 304 292 297 301 302 298
241 252 242 259 270 252 244 254 258 252 253 265 255 235 232 240 248 249 256 252 249 257 267 275 281 285 288 271 245 232 238 249 251 254 261 267 269 283 309 318 310 311 315 317
245 249 262 258 257 258 249 255 262 264 258 249 250 242 232 241 251 250 251 253 255 261 268 268 272 278 286 278 256 248 250 253 254 240 242 252 257 266 277 296 313 317 319 323
244 233 240 258 267 268 262 259 267 270 264 261 249 241 235 237 247 254 257 261 265 270 272 271 273 280 285 276 261 254 251 250 251 247 240 246 253 256 267 283 296 308 320 325
249 249 244 247 254 260 261 251 249 260 257 255 252 249 244 242 252 265 268 244 238 261 270 271 272 278 279 269 266 260 255 259 260 242 230 233 239 245 261 282 295 302 311 318
236 250 243 244 247 250 246 240 239 249 252 247 249 249 247 251 265 271 274 264 250 256 260 259 267 276 268 253 245 246 250 262 271 270 231 227 228 235 251 266 280 291 302 316
234 239 234 229 232 242 250 246 241 243 244 242 235 229 231 235 248 261 273 284 287 285 273 264 267 270 260 249 240 233 226 229 238 242 240 237 243 246 252 261 273 285 302 312
250 243 242 239 235 233 240 244 241 237 235 223 217 226 235 240 244 253 262 266 267 273 274 271 276 269 256 256 250 220 213 219 238 250 241 249 262 252 253 263 274 283 291 303
272 262 249 249 247 238 241 244 235 234 233 218 219 232 246 252 249 250 252 255 252 256 265 269 267 256 249 251 247 217 212 214 222 231 232 228 233 246 253 261 268 275 285 293
278 274 262 254 259 256 243 231 220 233 238 220 221 234 246 256 250 241 248 267 271 265 264 266 264 255 245 242 240 210 204 212 219 220 221 229 235 243 251 259 269 277 283 291
267 262 262 260 256 265 261 234 223 229 234 234 234 235 242 253 252 255 250 250 261 267 269 258 252 252 249 241 211 205 208 210 216 218 219 225 229 238 249 258 267 276 283 287
272 264 264 261 254 261 277 258 235 228 231 233 232 232 236 241 237 242 265 258 248 261 264 252 253 257 252 226 209 211 213 214 216 220 221 223 227 231 241 254 263 271 277 283
269 268 268 266 247 251 267 271 259 250 246 250 244 238 236 247 257 247 248 269 269 269 266 258 259 258 250 206 203 212 218 219 222 222 221 224 230 238 245 253 262 271 275 280
273 273 268 249 246 253 254 259 264 259 254 260 261 255 244 232 239 253 250 252 259 268 269 264 263 261 242 204 210 219 223 223 221 214 212 217 228 238 246 251 255 264 269 273
270 266 261 252 250 253 249 243 253 257 253 267 275 262 251 241 236 245 251 250 251 260 259 253 251 250 224 216 221 223 221 229 237 235 223 224 228 234 244 252 257 261 265 270
279 275 281 291 282 261 251 244 246 252 246 246 265 266 254 252 247 246 248 252 250 249 245 241 227 216 213 214 221 224 220 216 215 220 223 225 228 234 242 247 255 262 266 270